Weather in Saraktash

Russia / Orenburg Oblast     51°46′59″N   56°21′54″E
temp.,
°C
wind,
m/s
gust,
m/s
humid.,
%
clouds,
%
prec.,
mm/h
press.,
hPa
HPBL,
m
25 february, thu
thu2523:00−22nnw61488100 0.0 1024449
02:00−23nw5109289 0.0 1027216
05:00−26nw479555 0.0 1029124
08:00−29nw46960 0.0 103274
11:00−26nw35940 0.0 1033168
14:00−23nw23890 0.0 1034233
17:00−23w22930 0.0 103463
20:00−27s229728 0.0 103419
26 february, fri
fri2623:00−28sse239854 0.0 103423
02:00−27se3696100 0.0 1032127
05:00−25se4894100 0.0 1031226
08:00−23se5997100 0.2 1028270
11:00−20sse61096100 0.4 1027378
14:00−16sse61093100 0.3 1025535
17:00−14sse6993100 0.8 1023605
20:00−14sse61195100 0.4 1022459
27 february, sat
sat2723:00−13sse6119499 0.8 1019415
02:00−12sse71294100 0.3 1016427
05:00−10sse71394100 0.9 1013444
08:00−8sse81494100 1.6 1008604
11:00−4s71396100 7.4 1006695
14:00−1ssw71198100 1.8 1004511
17:00+1wsw49100100 2.8 1003399
20:000sw4899100 0.1 1003388
28 february, sun
sun2823:000wsw4898100 0.2 1003443
02:000sw4898100 0.6 1002442
05:00−1wsw4997100 1.6 1002522
08:00−2sw41097100 0.2 1003380
11:00−1sw6109599 0.6 1003559
14:00−1sw699498 0.3 1004740
17:00−1sw6109699 1.0 1004734
20:00−2ssw3897100 0.9 1006290
1 march, mon
mon123:00−10sw5119598 1.3 1008269
02:00−13wsw4896100 0.1 1010203
05:00−15wsw4796100 0.3 1013201
08:00−19wsw3398100 0.1 101559
11:00−16wsw229598 0.1 1016150
14:00−14wsw2291100 0.0 1017307
17:00−13wsw2394100 0.1 1018290
20:00−15wsw3397100 0.1 101974